SWA1278 KLAX-KPHX

Flight info

Callsign SWA1278
Flight time 0h 56m
Altitude 35000
Route DOTSS2 CNERY BLH HYDRR1
Aircraft B38M/M-SDE1FGHILORVWXY/HB1

Departure

Time 2026-04-22 20:11
Airport Los Angeles International Airport (KLAX)

Arrival

Time 2026-04-22 21:07
Airport Phoenix Sky Harbor International Airport (KPHX)
Time Latitude Longitude Altitude Speed Heading
2026-04-22 19:56 33.94687 -118.40192 128 ft 0 kts 82°
2026-04-22 20:04 33.94684 -118.40211 129 ft 2 kts 77°
2026-04-22 20:04 33.94679 -118.40230 128 ft 2 kts 64°
2026-04-22 20:04 33.94669 -118.40245 123 ft 2 kts 20°
2026-04-22 20:04 33.94655 -118.40246 126 ft 1 kts 352°
2026-04-22 20:05 33.94653 -118.40246 127 ft 0 kts 351°
2026-04-22 20:07 33.94657 -118.40247 126 ft 3 kts 351°
2026-04-22 20:07 33.94696 -118.40253 125 ft 11 kts 353°
2026-04-22 20:07 33.94774 -118.40263 125 ft 13 kts
2026-04-22 20:08 33.94829 -118.40207 125 ft 10 kts 77°
2026-04-22 20:08 33.94843 -118.40110 128 ft 10 kts 68°
2026-04-22 20:08 33.94877 -118.40080 124 ft 6 kts 15°
2026-04-22 20:08 33.94914 -118.40057 125 ft 4 kts 54°
2026-04-22 20:09 33.94926 -118.39996 128 ft 14 kts 78°
2026-04-22 20:09 33.94985 -118.39914 125 ft 13 kts 11°
2026-04-22 20:09 33.95036 -118.39956 127 ft 8 kts 282°
2026-04-22 20:09 33.95035 -118.40030 128 ft 10 kts 264°
2026-04-22 20:10 33.95025 -118.40123 128 ft 12 kts 262°
2026-04-22 20:10 33.95000 -118.40360 128 ft 68 kts 263°
2026-04-22 20:10 33.94904 -118.41277 124 ft 149 kts 262°
2026-04-22 20:10 33.94793 -118.42644 695 ft 182 kts 263°
2026-04-22 20:11 33.94668 -118.44344 1466 ft 217 kts 263°
2026-04-22 20:11 33.94465 -118.46246 2237 ft 241 kts 263°
2026-04-22 20:11 33.94351 -118.48309 3331 ft 248 kts 267°
2026-04-22 20:11 33.94250 -118.50410 4515 ft 256 kts 266°
2026-04-22 20:12 33.94084 -118.52531 5834 ft 252 kts 267°
2026-04-22 20:12 33.93917 -118.54662 6888 ft 261 kts 266°
2026-04-22 20:12 33.93806 -118.56121 7522 ft 265 kts 267°
2026-04-22 20:12 33.93585 -118.59060 9015 ft 265 kts 266°
2026-04-22 20:13 33.93175 -118.61243 9621 ft 275 kts 248°
2026-04-22 20:13 33.91997 -118.63043 9742 ft 280 kts 220°
2026-04-22 20:13 33.90203 -118.64012 9888 ft 291 kts 195°
2026-04-22 20:13 33.88155 -118.64052 9992 ft 299 kts 180°
2026-04-22 20:14 33.86078 -118.63880 9994 ft 299 kts 181°
2026-04-22 20:14 33.84029 -118.63405 9966 ft 305 kts 160°
2026-04-22 20:14 33.82190 -118.62105 10014 ft 309 kts 150°
2026-04-22 20:14 33.80391 -118.60689 10002 ft 310 kts 149°
2026-04-22 20:15 33.78619 -118.59275 10000 ft 309 kts 149°
2026-04-22 20:15 33.76830 -118.57838 9997 ft 309 kts 149°
2026-04-22 20:15 33.75622 -118.56863 10001 ft 310 kts 149°
2026-04-22 20:15 33.73259 -118.54949 10004 ft 310 kts 149°
2026-04-22 20:16 33.71470 -118.53495 10058 ft 315 kts 147°
2026-04-22 20:16 33.69899 -118.51602 10748 ft 331 kts 125°
2026-04-22 20:16 33.68905 -118.49063 11460 ft 342 kts 111°
2026-04-22 20:16 33.68067 -118.46345 12246 ft 351 kts 111°
2026-04-22 20:17 33.67224 -118.43574 13207 ft 356 kts 111°
2026-04-22 20:17 33.66373 -118.40740 14043 ft 364 kts 111°
2026-04-22 20:17 33.65525 -118.37895 14809 ft 369 kts 111°
2026-04-22 20:17 33.64709 -118.34944 15561 ft 377 kts 103°
2026-04-22 20:18 33.64511 -118.31801 16360 ft 381 kts 90°
2026-04-22 20:18 33.64491 -118.28587 17039 ft 389 kts 90°
2026-04-22 20:18 33.64476 -118.25314 17798 ft 394 kts 90°
2026-04-22 20:18 33.64471 -118.23124 18269 ft 399 kts 90°
2026-04-22 20:19 33.64468 -118.18631 19115 ft 406 kts 90°
2026-04-22 20:19 33.64467 -118.15230 19772 ft 409 kts 90°
2026-04-22 20:19 33.64466 -118.12963 20200 ft 412 kts 91°
2026-04-22 20:19 33.64463 -118.08383 21040 ft 417 kts 91°
2026-04-22 20:20 33.64460 -118.04883 21671 ft 421 kts 91°
2026-04-22 20:20 33.64457 -118.01361 22288 ft 425 kts 92°
2026-04-22 20:20 33.64452 -117.97797 22884 ft 429 kts 92°
2026-04-22 20:20 33.64446 -117.94206 23488 ft 432 kts 92°
2026-04-22 20:21 33.64439 -117.90589 24028 ft 435 kts 92°
2026-04-22 20:21 33.64434 -117.88171 24354 ft 438 kts 92°
2026-04-22 20:21 33.64422 -117.83263 24980 ft 443 kts 92°
2026-04-22 20:21 33.64412 -117.79555 25448 ft 446 kts 92°
2026-04-22 20:22 33.64402 -117.75859 25892 ft 450 kts 91°
2026-04-22 20:22 33.64389 -117.72089 26373 ft 453 kts 91°
2026-04-22 20:22 33.64379 -117.69532 26695 ft 455 kts 91°
2026-04-22 20:22 33.64359 -117.64475 27368 ft 461 kts 91°
2026-04-22 20:23 33.64342 -117.60609 27811 ft 465 kts 91°
2026-04-22 20:23 33.64330 -117.58034 28103 ft 467 kts 91°
2026-04-22 20:23 33.64310 -117.54126 28550 ft 470 kts 91°
2026-04-22 20:23 33.64291 -117.50195 28971 ft 474 kts 91°
2026-04-22 20:24 33.64270 -117.46231 29397 ft 477 kts 91°
2026-04-22 20:24 33.64245 -117.42231 29779 ft 481 kts 90°
2026-04-22 20:24 33.64211 -117.36896 30304 ft 485 kts 90°
2026-04-22 20:24 33.64194 -117.34149 30502 ft 487 kts 90°
2026-04-22 20:25 33.64166 -117.30072 30805 ft 492 kts 91°
2026-04-22 20:25 33.64136 -117.26002 31087 ft 496 kts 91°
2026-04-22 20:25 33.64105 -117.21848 31362 ft 500 kts 91°
2026-04-22 20:25 33.64073 -117.17661 31656 ft 504 kts 91°
2026-04-22 20:26 33.64038 -117.13438 31965 ft 507 kts 91°
2026-04-22 20:26 33.64001 -117.09192 32251 ft 511 kts 91°
2026-04-22 20:26 33.63963 -117.04915 32523 ft 515 kts 91°
2026-04-22 20:26 33.63924 -117.00602 32801 ft 519 kts 91°
2026-04-22 20:27 33.63882 -116.96258 33028 ft 523 kts 91°
2026-04-22 20:27 33.63840 -116.91875 33191 ft 529 kts 91°
2026-04-22 20:27 33.63795 -116.87499 33498 ft 532 kts 91°
2026-04-22 20:27 33.63748 -116.83049 33738 ft 536 kts 91°
2026-04-22 20:28 33.63699 -116.78552 33926 ft 540 kts 91°
2026-04-22 20:28 33.63647 -116.74038 34264 ft 542 kts 91°
2026-04-22 20:28 33.63593 -116.69505 34525 ft 544 kts 91°
2026-04-22 20:28 33.63539 -116.64971 34856 ft 544 kts 91°
2026-04-22 20:29 33.63482 -116.60427 35097 ft 546 kts 91°
2026-04-22 20:29 33.63366 -116.51346 35085 ft 541 kts 91°
2026-04-22 20:30 33.63243 -116.42396 35075 ft 540 kts 91°
2026-04-22 20:30 33.63113 -116.33398 35080 ft 540 kts 91°
2026-04-22 20:31 33.62976 -116.24372 35047 ft 541 kts 91°
2026-04-22 20:31 33.62832 -116.15373 35055 ft 539 kts 92°
2026-04-22 20:32 33.62683 -116.06375 35054 ft 539 kts 92°
2026-04-22 20:32 33.62529 -115.97433 35016 ft 540 kts 92°
2026-04-22 20:33 33.62365 -115.88392 35054 ft 542 kts 92°
2026-04-22 20:33 33.62196 -115.79361 35049 ft 541 kts 92°
2026-04-22 20:34 33.62022 -115.70333 35054 ft 541 kts 92°
2026-04-22 20:34 33.61843 -115.61365 35051 ft 541 kts 92°
2026-04-22 20:35 33.61631 -115.52364 35062 ft 539 kts 92°
2026-04-22 20:35 33.61416 -115.43373 35048 ft 539 kts 92°
2026-04-22 20:36 33.61197 -115.34382 35037 ft 539 kts 92°
2026-04-22 20:36 33.60973 -115.25469 34827 ft 536 kts 92°
2026-04-22 20:36 33.60857 -115.21011 34542 ft 535 kts 92°
2026-04-22 20:37 33.60739 -115.16555 34239 ft 534 kts 92°
2026-04-22 20:37 33.60621 -115.12108 33916 ft 534 kts 92°
2026-04-22 20:37 33.60502 -115.07660 33575 ft 533 kts 92°
2026-04-22 20:37 33.60381 -115.03224 33239 ft 531 kts 92°
2026-04-22 20:38 33.60260 -114.98805 32877 ft 529 kts 92°
2026-04-22 20:38 33.60137 -114.94397 32551 ft 529 kts 92°
2026-04-22 20:38 33.60013 -114.90051 32239 ft 527 kts 92°
2026-04-22 20:38 33.59888 -114.85661 31926 ft 526 kts 92°
2026-04-22 20:39 33.59762 -114.81293 31609 ft 524 kts 93°
2026-04-22 20:39 33.59623 -114.76937 31295 ft 521 kts 95°
2026-04-22 20:39 33.59045 -114.72684 30955 ft 515 kts 107°
2026-04-22 20:39 33.58234 -114.68508 30690 ft 514 kts 105°
2026-04-22 20:40 33.57454 -114.64336 30405 ft 512 kts 105°
2026-04-22 20:40 33.56694 -114.60230 30113 ft 510 kts 105°
2026-04-22 20:40 33.55929 -114.56085 29780 ft 509 kts 105°
2026-04-22 20:40 33.55164 -114.51944 29428 ft 509 kts 105°
2026-04-22 20:41 33.54398 -114.47802 29089 ft 509 kts 105°
2026-04-22 20:41 33.53631 -114.43663 28755 ft 509 kts 105°
2026-04-22 20:41 33.52863 -114.39531 28428 ft 508 kts 105°
2026-04-22 20:41 33.52094 -114.35395 28104 ft 507 kts 105°
2026-04-22 20:42 33.51324 -114.31270 27792 ft 507 kts 105°
2026-04-22 20:42 33.50554 -114.27149 27475 ft 507 kts 105°
2026-04-22 20:42 33.49792 -114.23077 27167 ft 507 kts 105°
2026-04-22 20:42 33.49019 -114.18958 26856 ft 507 kts 105°
2026-04-22 20:43 33.48243 -114.14832 26518 ft 507 kts 105°
2026-04-22 20:43 33.47469 -114.10718 25999 ft 505 kts 105°
2026-04-22 20:43 33.46694 -114.06615 25493 ft 505 kts 105°
2026-04-22 20:43 33.45922 -114.02527 25001 ft 501 kts 105°
2026-04-22 20:44 33.45155 -113.98478 24512 ft 497 kts 105°
2026-04-22 20:44 33.44392 -113.94455 24044 ft 493 kts 105°
2026-04-22 20:44 33.43645 -113.90527 23586 ft 489 kts 105°
2026-04-22 20:44 33.42893 -113.86579 23030 ft 485 kts 105°
2026-04-22 20:45 33.42145 -113.82661 22497 ft 481 kts 105°
2026-04-22 20:45 33.41404 -113.78783 21967 ft 476 kts 105°
2026-04-22 20:45 33.40668 -113.74933 21440 ft 472 kts 105°
2026-04-22 20:45 33.39935 -113.71115 20935 ft 468 kts 105°
2026-04-22 20:46 33.38490 -113.63604 19915 ft 459 kts 105°
2026-04-22 20:46 33.37784 -113.59946 19426 ft 455 kts 105°
2026-04-22 20:46 33.37076 -113.56274 18945 ft 451 kts 105°
2026-04-22 20:47 33.36370 -113.52630 18477 ft 448 kts 105°
2026-04-22 20:47 33.35670 -113.49023 17959 ft 445 kts 105°
2026-04-22 20:47 33.34976 -113.45445 17424 ft 441 kts 105°
2026-04-22 20:47 33.34283 -113.41882 16870 ft 437 kts 105°
2026-04-22 20:48 33.33596 -113.38357 16357 ft 433 kts 105°
2026-04-22 20:48 33.32915 -113.34866 15845 ft 429 kts 105°
2026-04-22 20:48 33.32250 -113.31463 15359 ft 426 kts 105°
2026-04-22 20:48 33.31568 -113.27976 14866 ft 422 kts 105°
2026-04-22 20:49 33.30901 -113.24574 14385 ft 419 kts 105°
2026-04-22 20:49 33.30248 -113.21243 13914 ft 415 kts 105°
2026-04-22 20:49 33.29591 -113.17897 13407 ft 412 kts 105°
2026-04-22 20:49 33.28938 -113.14575 12893 ft 408 kts 105°
2026-04-22 20:50 33.28291 -113.11294 12387 ft 405 kts 105°
2026-04-22 20:50 33.27650 -113.08030 11883 ft 402 kts 104°
2026-04-22 20:50 33.27458 -113.04714 11379 ft 401 kts 88°
2026-04-22 20:50 33.27576 -113.01419 11199 ft 393 kts 89°
2026-04-22 20:51 33.27660 -112.98186 11074 ft 395 kts 89°
2026-04-22 20:51 33.27742 -112.94918 10998 ft 394 kts 89°
2026-04-22 20:51 33.27823 -112.91637 10989 ft 395 kts 89°
2026-04-22 20:51 33.27903 -112.88357 10991 ft 395 kts 89°
2026-04-22 20:52 33.27983 -112.85075 11004 ft 395 kts 89°
2026-04-22 20:52 33.28097 -112.81793 10997 ft 395 kts 85°
2026-04-22 20:52 33.28431 -112.78533 11016 ft 396 kts 84°
2026-04-22 20:52 33.28756 -112.75265 11005 ft 396 kts 84°
2026-04-22 20:53 33.29063 -112.72045 10930 ft 396 kts 84°
2026-04-22 20:53 33.29366 -112.68784 10570 ft 393 kts 84°
2026-04-22 20:53 33.29663 -112.65552 10194 ft 390 kts 84°
2026-04-22 20:53 33.29958 -112.62337 9806 ft 387 kts 84°
2026-04-22 20:54 33.30246 -112.59194 9471 ft 371 kts 84°
2026-04-22 20:54 33.30519 -112.56210 9236 ft 350 kts 85°
2026-04-22 20:54 33.30775 -112.53406 9078 ft 328 kts 85°
2026-04-22 20:54 33.31014 -112.50765 9048 ft 314 kts 85°
2026-04-22 20:55 33.31240 -112.48268 9033 ft 295 kts 85°
2026-04-22 20:55 33.31456 -112.45884 9033 ft 286 kts 85°
2026-04-22 20:55 33.31671 -112.43512 9007 ft 286 kts 85°
2026-04-22 20:55 33.31883 -112.41150 9003 ft 286 kts 85°
2026-04-22 20:56 33.32095 -112.38790 9011 ft 286 kts 85°
2026-04-22 20:56 33.32307 -112.36427 9057 ft 280 kts 85°
2026-04-22 20:56 33.32514 -112.34155 9041 ft 272 kts 85°
2026-04-22 20:56 33.32720 -112.31918 8884 ft 266 kts 85°
2026-04-22 20:57 33.32916 -112.29763 8612 ft 257 kts 85°
2026-04-22 20:57 33.33105 -112.27691 8336 ft 252 kts 85°
2026-04-22 20:57 33.33292 -112.25633 8103 ft 248 kts 86°
2026-04-22 20:57 33.33477 -112.23594 7869 ft 247 kts 86°
2026-04-22 20:58 33.33663 -112.21556 7598 ft 244 kts 85°
2026-04-22 20:58 33.33846 -112.19539 7325 ft 244 kts 86°
2026-04-22 20:58 33.34025 -112.17546 7069 ft 242 kts 85°
2026-04-22 20:58 33.34207 -112.15532 6817 ft 240 kts 86°
2026-04-22 20:59 33.34385 -112.13555 6565 ft 240 kts 86°
2026-04-22 20:59 33.34563 -112.11577 6321 ft 238 kts 85°
2026-04-22 20:59 33.34736 -112.09611 6039 ft 236 kts 86°
2026-04-22 20:59 33.34744 -112.07694 5776 ft 230 kts 93°
2026-04-22 21:00 33.34708 -112.05823 5504 ft 221 kts 92°
2026-04-22 21:00 33.34678 -112.04010 5201 ft 216 kts 93°
2026-04-22 21:00 33.34653 -112.02232 4976 ft 213 kts 92°
2026-04-22 21:00 33.34633 -112.00474 4714 ft 209 kts 92°
2026-04-22 21:01 33.34617 -111.98726 4410 ft 211 kts 91°
2026-04-22 21:01 33.34603 -111.96976 4170 ft 210 kts 92°
2026-04-22 21:01 33.34589 -111.95260 3902 ft 200 kts 92°
2026-04-22 21:01 33.34587 -111.93611 3612 ft 197 kts 87°
2026-04-22 21:02 33.34996 -111.92079 3381 ft 191 kts 59°
2026-04-22 21:02 33.35813 -111.90860 3281 ft 188 kts 39°
2026-04-22 21:02 33.36863 -111.89975 3300 ft 186 kts 26°
2026-04-22 21:02 33.38000 -111.89237 3284 ft 186 kts 27°
2026-04-22 21:03 33.38932 -111.88200 3304 ft 183 kts 50°
2026-04-22 21:03 33.39713 -111.87002 3368 ft 182 kts 49°
2026-04-22 21:03 33.40552 -111.85849 3325 ft 182 kts 44°
2026-04-22 21:03 33.41592 -111.85187 3188 ft 161 kts
2026-04-22 21:04 33.42649 -111.85385 3098 ft 151 kts 323°
2026-04-22 21:04 33.43372 -111.86220 3096 ft 143 kts 298°
2026-04-22 21:04 33.43705 -111.87322 3036 ft 141 kts 275°
2026-04-22 21:04 33.43811 -111.88467 2853 ft 140 kts 272°
2026-04-22 21:05 33.43976 -111.89606 2692 ft 139 kts 277°
2026-04-22 21:05 33.44068 -111.90757 2511 ft 138 kts 268°
2026-04-22 21:05 33.44079 -111.91903 2360 ft 137 kts 266°
2026-04-22 21:05 33.44074 -111.93034 2183 ft 135 kts 269°
2026-04-22 21:06 33.44074 -111.94173 1945 ft 139 kts 271°
2026-04-22 21:06 33.44083 -111.95342 1838 ft 143 kts 268°
2026-04-22 21:06 33.44079 -111.96525 1662 ft 142 kts 269°
2026-04-22 21:06 33.44073 -111.97717 1413 ft 142 kts 270°
2026-04-22 21:07 33.44082 -111.98902 1214 ft 144 kts 270°
2026-04-22 21:07 33.44083 -112.00070 1137 ft 130 kts 270°
2026-04-22 21:07 33.44085 -112.01028 1134 ft 104 kts 270°
2026-04-22 21:07 33.44066 -112.01647 1137 ft 38 kts 246°
2026-04-22 21:08 33.43975 -112.01761 1134 ft 0 kts 208°
2026-04-22 21:08 33.43964 -112.01768 1135 ft 3 kts 208°
2026-04-22 21:08 33.43942 -112.01775 1135 ft 4 kts 187°
2026-04-22 21:08 33.43917 -112.01762 1134 ft 10 kts 144°
2026-04-22 21:09 33.43897 -112.01650 1133 ft 23 kts 91°
2026-04-22 21:09 33.43901 -112.01399 1133 ft 34 kts 89°
2026-04-22 21:09 33.43901 -112.01114 1133 ft 35 kts 89°
2026-04-22 21:09 33.43904 -112.00813 1133 ft 37 kts 91°
2026-04-22 21:10 33.43903 -112.00503 1133 ft 38 kts 88°
2026-04-22 21:10 33.43903 -112.00212 1133 ft 28 kts 88°
2026-04-22 21:10 33.43849 -112.00079 1135 ft 15 kts 177°
2026-04-22 21:10 33.43756 -112.00071 1135 ft 3 kts 147°
2026-04-22 21:11 33.43726 -112.00031 1136 ft 11 kts 120°
2026-04-22 21:11 33.43720 -111.99997 1134 ft 0 kts 93°